KC9DRE Weather Reports


Display with metric or nautical units.
time (UTC)temp
F
wind
direction
speed
MPH
gust
MPH
rain 1hr
in
rain 24hr
in
rain mn
in
humidity
%
barometer
mb
20260504035721 55 247 0.0 2.0 0.00 0.00 0.00 58 1013.3
20260504035219 55 186 1.0 2.0 0.00 0.00 0.00 58 1013.3
20260504034716 56 310 1.0 1.0 0.00 0.00 0.00 58 1013.4
20260504034213 56 278 0.0 1.0 0.00 0.00 0.00 58 1013.7
20260504033711 55 308 1.0 1.0 0.00 0.00 0.00 58 1013.4
20260504033208 55 271 0.0 0.0 0.00 0.00 0.00 59 1013.5
20260504032705 55 217 1.0 1.0 0.00 0.00 0.00 59 1013.5
20260504032202 55 202 1.0 1.0 0.00 0.00 0.00 59 1013.7
20260504031659 55 242 1.0 1.0 0.00 0.00 0.00 59 1013.8
20260504031155 55 280 0.0 1.0 0.00 0.00 0.00 60 1013.7
20260504030652 54 251 0.0 2.0 0.00 0.00 0.00 63 1013.7
20260504030149 53 275 0.0 1.0 0.00 0.00 0.00 65 1013.7
20260504025645 51 235 1.0 2.0 0.00 0.00 0.00 67 1014.0
20260504025142 51 269 0.0 0.0 0.00 0.00 0.00 70 1014.0
20260504024640 51 269 0.0 0.0 0.00 0.00 0.00 73 1013.9
20260504024136 50 258 0.0 0.0 0.00 0.00 0.00 74 1014.1
20260504023633 49 284 0.0 0.0 0.00 0.00 0.00 77 1013.9
20260504023129 48 269 0.0 0.0 0.00 0.00 0.00 81 1014.0
20260504022625 48 276 0.0 0.0 0.00 0.00 0.00 81 1014.0
20260504022121 48 271 0.0 0.0 0.00 0.00 0.00 81 1013.9
20260504021620 48 261 0.0 0.0 0.00 0.00 0.00 80 1014.1
20260504021116 48 260 0.0 0.0 0.00 0.00 0.00 80 1014.2
20260504020613 48 259 0.0 0.0 0.00 0.00 0.00 79 1014.0
20260504020109 48 266 0.0 0.0 0.00 0.00 0.00 81 1014.0
20260504015606 48 266 0.0 0.0 0.00 0.00 0.00 82 1014.1
20260504015101 48 270 0.0 0.0 0.00 0.00 0.00 81 1014.3
20260504014558 48 270 0.0 0.0 0.00 0.00 0.00 79 1014.2
20260504014055 48 270 0.0 0.0 0.00 0.00 0.00 79 1014.1
20260504013553 49 265 0.0 0.0 0.00 0.00 0.00 77 1014.1
20260504013049 50 265 0.0 0.0 0.00 0.00 0.00 75 1014.1
20260504012547 50 265 0.0 0.0 0.00 0.00 0.00 74 1014.1
20260504012045 51 265 0.0 0.0 0.00 0.00 0.00 72 1014.2
20260504011541 51 265 0.0 0.0 0.00 0.00 0.00 69 1014.2
20260504011037 52 264 0.0 0.0 0.00 0.00 0.00 67 1014.2
20260504010533 53 265 0.0 0.0 0.00 0.00 0.00 65 1014.0
20260504010029 54 262 0.0 0.0 0.00 0.00 0.00 62 1014.4
20260504005526 55 270 0.0 1.0 0.00 0.00 0.00 61 1014.1
20260504005024 56 266 0.0 0.0 0.00 0.00 0.00 58 1014.3
20260504004521 57 267 0.0 0.0 0.00 0.00 0.00 55 1014.3
20260504004018 59 261 0.0 1.0 0.00 0.00 0.00 54 1014.1
20260504003514 59 270 0.0 0.0 0.00 0.00 0.00 52 1013.8
20260504003011 60 271 0.0 3.0 0.00 0.00 0.00 50 1013.8
20260504002508 60 276 0.0 1.0 0.00 0.00 0.00 49 1013.9
20260504002006 60 258 0.0 1.0 0.00 0.00 0.00 50 1013.9
20260504001503 61 263 0.0 3.0 0.00 0.00 0.00 46 1013.9
20260504000959 61 270 1.0 2.0 0.00 0.00 0.00 46 1013.5
20260504000457 61 265 2.0 3.0 0.00 0.00 0.00 46 1013.7
20260503235954 62 270 2.0 3.0 0.00 0.00 0.00 45 1013.7
20260503235451 62 261 0.0 4.0 0.00 0.00 0.00 45 1013.5
20260503234948 62 253 2.0 3.0 0.00 0.00 0.00 44 1013.7
20260503234446 63 289 3.0 7.0 0.00 0.00 0.00 43 1013.6
20260503233944 63 186 2.0 3.0 0.00 0.00 0.00 43 1013.6
20260503233440 63 261 2.0 4.0 0.00 0.00 0.00 42 1013.5
20260503232936 63 256 2.0 7.0 0.00 0.00 0.00 42 1013.6
20260503232433 64 278 1.0 3.0 0.00 0.00 0.00 43 1013.6
20260503231932 64 218 0.0 3.0 0.00 0.00 0.00 42 1013.6
20260503231429 64 156 2.0 6.0 0.00 0.00 0.00 41 1013.8
20260503230925 64 275 0.0 2.0 0.00 0.00 0.00 41 1013.6
20260503230421 64 203 1.0 11.0 0.00 0.00 0.00 41 1013.7
20260503225920 64 270 5.0 7.0 0.00 0.00 0.00 41 1013.7
20260503225416 65 218 2.0 7.0 0.00 0.00 0.00 41 1013.7
20260503224911 65 264 2.0 11.0 0.00 0.00 0.00 41 1013.7
20260503224409 65 282 1.0 2.0 0.00 0.00 0.00 40 1013.9
20260503223906 65 279 3.0 4.0 0.00 0.00 0.00 39 1014.0
20260503223404 66 246 4.0 4.0 0.00 0.00 0.00 39 1014.2
20260503222859 66 303 2.0 4.0 0.00 0.00 0.00 38 1014.3
20260503222358 66 200 4.0 7.0 0.00 0.00 0.00 38 1014.5
20260503221856 65 339 4.0 6.0 0.00 0.00 0.00 38 1014.7
20260503221354 64 245 4.0 4.0 0.00 0.00 0.00 39 1014.7
20260503220850 64 192 3.0 4.0 0.00 0.00 0.00 41 1014.6
20260503220347 64 272 1.0 4.0 0.00 0.00 0.00 39 1014.6
20260503215844 66 235 2.0 10.0 0.00 0.00 0.00 39 1015.1
20260503215341 66 261 1.0 9.0 0.00 0.00 0.00 40 1015.1
20260503214839 66 60 2.0 6.0 0.00 0.00 0.00 38 1015.0
20260503214336 65 83 1.0 4.0 0.00 0.00 0.00 41 1014.7
20260503213833 64 246 3.0 3.0 0.00 0.00 0.00 40 1014.9
20260503213331 65 264 2.0 9.0 0.00 0.00 0.00 40 1015.1
20260503212827 66 253 4.0 7.0 0.00 0.00 0.00 38 1015.6
20260503212325 66 303 3.0 4.0 0.00 0.00 0.00 37 1015.6
20260503211822 67 286 4.0 8.0 0.00 0.00 0.00 36 1015.7
20260503211319 68 257 4.0 6.0 0.00 0.00 0.00 35 1015.6
20260503210819 68 288 4.0 8.0 0.00 0.00 0.00 36 1015.9
20260503210317 67 285 1.0 2.0 0.00 0.00 0.00 37 1015.8
20260503205811 67 235 1.0 7.0 0.00 0.00 0.00 36 1015.9
20260503205308 67 290 1.0 6.0 0.00 0.00 0.00 35 1015.7
20260503204805 67 216 2.0 3.0 0.00 0.00 0.00 36 1015.4
20260503204303 67 260 2.0 4.0 0.00 0.00 0.00 36 1015.5
20260503203800 67 186 2.0 10.0 0.00 0.00 0.00 35 1015.6
20260503203257 66 253 1.0 7.0 0.00 0.00 0.00 35 1015.7
20260503202754 67 184 4.0 7.0 0.00 0.00 0.00 36 1016.2
20260503202252 67 282 1.0 6.0 0.00 0.00 0.00 34 1016.2
20260503201749 67 267 1.0 6.0 0.00 0.00 0.00 37 1016.3
20260503201247 66 274 1.0 2.0 0.00 0.00 0.00 36 1016.3
20260503200743 66 294 2.0 8.0 0.00 0.00 0.00 34 1016.3
20260503200239 66 233 2.0 6.0 0.00 0.00 0.00 36 1016.6
20260503195736 66 246 4.0 7.0 0.00 0.00 0.00 34 1016.7
20260503195233 66 286 4.0 6.0 0.00 0.00 0.00 34 1016.9
20260503194731 66 262 3.0 4.0 0.00 0.00 0.00 36 1016.7
20260503194226 67 160 2.0 8.0 0.00 0.00 0.00 32 1017.0
20260503193723 66 282 3.0 10.0 0.00 0.00 0.00 35 1017.1
20260503193219 66 261 2.0 7.0 0.00 0.00 0.00 35 1017.0
20260503192715 66 258 3.0 7.0 0.00 0.00 0.00 35 1017.3
20260503192210 66 309 4.0 6.0 0.00 0.00 0.00 32 1017.5
20260503191707 66 164 4.0 8.0 0.00 0.00 0.00 34 1017.6
20260503191204 65 282 3.0 4.0 0.00 0.00 0.00 34 1017.8
20260503190701 65 238 5.0 9.0 0.00 0.00 0.00 33 1018.0
20260503190158 66 4 4.0 8.0 0.00 0.00 0.00 34 1017.9
20260503185655 66 260 3.0 6.0 0.00 0.00 0.00 32 1018.1
20260503185150 65 268 1.0 6.0 0.00 0.00 0.00 34 1018.0
20260503184645 66 254 2.0 7.0 0.00 0.00 0.00 35 1018.3
20260503184142 65 291 3.0 7.0 0.00 0.00 0.00 32 1018.4
20260503183638 65 283 5.0 7.0 0.00 0.00 0.00 31 1018.4
20260503183136 65 260 1.0 7.0 0.00 0.00 0.00 32 1018.4
20260503182634 65 122 3.0 8.0 0.00 0.00 0.00 32 1018.5
20260503182132 65 281 2.0 7.0 0.00 0.00 0.00 34 1018.6
20260503181629 65 136 2.0 11.0 0.00 0.00 0.00 35 1018.2
20260503181125 65 274 1.0 4.0 0.00 0.00 0.00 35 1018.6
20260503180622 64 303 3.0 6.0 0.00 0.00 0.00 35 1018.7
20260503180120 64 286 2.0 7.0 0.00 0.00 0.00 36 1018.7
20260503175617 64 272 0.0 6.0 0.00 0.00 0.00 36 1019.0
20260503175114 64 274 5.0 9.0 0.00 0.00 0.00 32 1019.0
20260503174611 65 234 1.0 3.0 0.00 0.00 0.00 36 1018.9
20260503174108 64 229 0.0 7.0 0.00 0.00 0.00 40 1018.9
20260503173602 64 250 1.0 6.0 0.00 0.00 0.00 35 1019.1
20260503173059 64 234 0.0 4.0 0.00 0.00 0.00 38 1019.1
20260503172556 64 259 2.0 8.0 0.00 0.00 0.00 36 1019.2
20260503172054 63 260 1.0 2.0 0.00 0.00 0.00 39 1019.4
20260503171550 63 284 1.0 9.0 0.00 0.00 0.00 34 1019.3
20260503171047 63 227 2.0 8.0 0.00 0.00 0.00 40 1019.4
20260503170543 63 204 3.0 6.0 0.00 0.00 0.00 38 1019.4
20260503150936 59 254 3.0 6.0 0.00 0.00 0.00 42 1021.1
20260503150433 60 269 2.0 9.0 0.00 0.00 0.00 40 1021.0
20260503131326 51 269 1.0 4.0 0.00 0.00 0.00 56 1020.9
20260503130823 51 245 1.0 4.0 0.00 0.00 0.00 59 1021.0
20260503130321 51 252 1.0 2.0 0.00 0.00 0.00 59 1021.1
20260503110714 29 272 0.0 0.0 0.00 0.00 0.00 98 1020.0
20260503110211 29 272 0.0 0.0 0.00 0.00 0.00 98 1020.1
20260503100138 29 272 0.0 0.0 0.00 0.00 0.00 97 1020.0
20260503081527 29 272 0.0 0.0 0.00 0.00 0.00 97 1019.6
20260503081025 29 272 0.0 0.0 0.00 0.00 0.00 97 1019.6
20260503080520 29 272 0.0 0.0 0.00 0.00 0.00 97 1019.6
20260503072454 29 272 0.0 0.0 0.00 0.00 0.00 96 1019.5
20260503071951 30 272 0.0 0.0 0.00 0.00 0.00 96 1019.6
20260503071448 30 272 0.0 0.0 0.00 0.00 0.00 96 1019.5
20260503070944 30 272 0.0 0.0 0.00 0.00 0.00 96 1019.7
20260503070441 30 272 0.0 0.0 0.00 0.00 0.00 96 1019.6
20260503054855 31 272 0.0 0.0 0.00 0.00 0.00 95 1020.0
20260503054351 31 272 0.0 0.0 0.00 0.00 0.00 96 1020.0
20260503053849 31 272 0.0 0.0 0.00 0.00 0.00 96 1020.0
20260503053347 31 272 0.0 0.0 0.00 0.00 0.00 95 1019.9
20260503052843 31 272 0.0 0.0 0.00 0.00 0.00 95 1020.0
20260503052340 31 272 0.0 0.0 0.00 0.00 0.00 95 1020.0
20260503051836 32 272 0.0 0.0 0.00 0.00 0.00 95 1020.0
20260503051332 32 272 0.0 0.0 0.00 0.00 0.00 95 1020.1
20260503050830 32 272 0.0 0.0 0.00 0.00 0.00 95 1020.0
20260503050326 32 272 0.0 0.0 0.00 0.00 0.00 95 1019.9
20260503045824 32 272 0.0 0.0 0.00 0.00 0.00 95 1020.0
20260503045321 32 272 0.0 0.0 0.00 0.00 0.00 95 1019.8
20260503044817 32 272 0.0 0.0 0.00 0.00 0.00 95 1019.8
20260503044314 32 272 0.0 0.0 0.00 0.00 0.00 95 1019.9
20260503043811 33 272 0.0 0.0 0.00 0.00 0.00 95 1019.8
20260503043308 33 272 0.0 0.0 0.00 0.00 0.00 94 1019.7
20260503042804 33 272 0.0 0.0 0.00 0.00 0.00 94 1019.8
20260503042301 33 272 0.0 0.0 0.00 0.00 0.00 94 1019.7
20260503041757 34 272 0.0 0.0 0.00 0.00 0.00 94 1019.8
20260503041255 34 272 0.0 0.0 0.00 0.00 0.00 94 1019.6
20260503040752 33 272 0.0 0.0 0.00 0.00 0.00 94 1019.8
20260503040250 33 272 0.0 0.0 0.00 0.00 0.00 94 1019.7